Date,TemperatureHighF,TemperatureAvgF,TemperatureLowF,DewpointHighF,DewpointAvgF,DewpointLowF,HumidityHigh,HumidityAvg,HumidityLow,PressureMaxIn,PressureMinIn,WindSpeedMaxMPH,WindSpeedAvgMPH,GustSpeedMaxMPH,PrecipitationSumIn
2014-1-1,45.1,34.7,27.9,28.4,23.5,20.7,78,65,42,31.39,31.13,9,1,9,0.00
2014-1-2,50.9,37.3,26.5,34.2,26.6,20.7,92,67,42,31.29,30.62,19,3,19,0.00
2014-1-3,51.9,38.2,28.2,36.2,26.8,17.8,87,65,45,30.99,30.47,28,4,28,0.06
2014-1-4,31.0,28.4,25.2,23.4,16.2,10.1,79,61,43,31.31,30.98,19,3,20,0.00
2014-1-5,28.3,20.4,10.3,18.1,10.4,4.3,79,65,51,31.73,31.27,15,2,17,0.00
2014-1-6,25.8,15.4,6.6,13.1,8.3,1.7,92,73,57,31.76,31.31,7,0,7,0.00
2014-1-7,26.7,22.1,17.2,18.5,14.9,11.1,82,73,62,31.31,31.11,9,0,9,0.00
2014-1-8,43.7,32.6,22.5,30.7,23.5,17.9,82,70,57,31.11,30.67,20,3,20,0.00
2014-1-9,40.0,35.5,32.5,32.8,27.2,18.5,90,72,52,30.85,30.59,20,4,20,0.09
2014-1-10,41.5,37.0,32.4,32.6,29.0,20.8,92,73,54,30.88,30.63,19,6,23,0.02
2014-1-11,46.5,39.8,34.4,39.2,32.5,25.1,89,75,62,30.80,30.24,32,8,34,0.21
2014-1-12,41.1,35.4,32.8,30.7,26.9,21.8,90,72,55,30.97,30.38,28,8,28,0.00
2014-1-13,46.6,42.8,39.1,32.7,30.5,26.5,71,62,47,31.31,30.91,32,5,32,0.01
2014-1-14,49.9,40.5,34.2,32.2,29.1,25.7,77,64,46,31.52,31.30,13,2,13,0.00
2014-1-15,52.4,40.7,31.7,27.5,23.5,20.3,70,51,29,31.42,31.23,17,3,17,0.00
2014-1-16,46.4,34.4,26.8,28.1,23.2,20.4,80,64,44,31.53,31.34,7,0,7,0.00
2014-1-17,43.6,30.6,20.4,27.1,22.4,16.2,86,72,47,31.40,31.24,9,1,9,0.00
2014-1-18,42.5,30.0,20.6,27.0,22.4,16.8,89,74,48,31.43,31.15,12,0,12,0.00
2014-1-19,46.9,32.8,20.8,29.6,23.7,16.1,92,70,45,31.20,31.03,12,1,16,0.00
2014-1-20,46.4,32.8,25.0,30.6,24.6,19.5,89,72,49,31.50,31.16,10,1,10,0.00
2014-1-21,41.2,28.5,19.7,27.5,21.9,15.7,88,77,53,31.52,31.26,7,0,7,0.00
2014-1-22,36.0,30.9,26.4,32.4,26.8,23.2,92,85,72,31.39,31.17,11,1,11,0.00
2014-1-23,45.0,32.6,24.5,31.8,26.2,19.9,93,79,49,31.57,31.36,8,0,9,0.00
2014-1-24,42.6,29.1,19.7,26.7,21.3,15.8,92,74,47,31.65,31.43,12,1,12,0.00
2014-1-25,42.4,28.3,18.5,27.2,21.1,14.9,96,75,51,31.50,31.20,9,0,9,0.00
2014-1-26,30.8,25.8,18.2,25.9,20.6,14.1,96,81,62,31.28,31.14,11,1,11,0.00
2014-1-27,35.3,27.1,16.8,19.0,13.6,8.3,76,57,39,31.45,31.22,12,1,12,0.00
2014-1-28,31.9,22.5,11.2,17.7,11.3,4.6,89,63,43,31.50,31.09,9,0,9,0.00
2014-1-29,39.7,32.6,25.3,37.3,27.2,16.3,94,81,61,31.09,30.50,23,2,23,0.12
2014-1-30,35.4,27.0,19.3,33.0,24.4,16.6,100,90,84,30.91,30.50,17,3,17,0.10
2014-1-31,27.3,21.5,17.0,22.5,18.5,14.2,98,88,78,31.04,30.88,12,1,12,0.02
2014-2-1,27.0,20.1,12.3,19.5,15.8,8.3,92,83,69,31.23,31.02,5,0,5,0.01
2014-2-2,26.1,20.2,14.8,21.1,16.2,12.0,92,84,78,31.17,30.89,7,1,7,0.00
2014-2-3,22.0,16.6,8.1,20.0,11.6,-1.5,96,81,64,31.34,30.83,24,8,24,0.00
2014-2-4,10.4,3.1,-4.5,1.0,-5.8,-10.5,78,66,48,31.73,31.34,16,2,16,0.00
2014-2-5,4.7,-4.6,-13.4,-7.5,-14.1,-20.7,76,64,43,31.94,31.73,10,1,10,0.00
2014-2-6,1.9,-8.2,-18.8,-10.5,-16.9,-25.4,75,65,49,31.82,31.23,5,0,5,0.00
2014-2-7,11.3,2.2,-3.3,2.7,-4.0,-10.6,90,75,61,31.23,31.03,5,0,5,0.00
2014-2-8,20.6,11.6,4.9,12.6,6.8,0.2,92,81,67,31.30,31.00,5,0,5,0.00
2014-2-9,17.2,13.8,10.8,11.8,9.8,7.2,87,84,76,31.29,31.05,6,1,6,0.00
2014-2-10,40.6,22.2,13.4,32.1,16.8,10.0,89,80,57,31.35,30.95,18,1,18,0.00
2014-2-11,44.2,36.9,29.1,33.9,26.6,16.2,92,67,37,31.09,30.86,22,6,22,0.11
2014-2-12,44.4,38.6,31.1,36.3,31.3,22.9,85,75,60,30.97,30.58,31,7,31,0.03
2014-2-13,44.9,39.1,32.8,35.3,29.7,21.4,90,69,45,30.99,30.54,30,5,30,0.14
2014-2-14,41.1,35.3,31.3,36.2,28.6,20.5,92,77,55,31.01,30.67,20,4,20,0.04
2014-2-15,42.6,36.2,31.2,37.5,31.0,25.1,93,81,73,30.95,30.46,15,1,15,0.10
2014-2-16,42.4,36.8,33.1,37.2,26.6,18.4,88,67,45,31.00,30.38,28,6,28,0.06
2014-2-17,49.5,39.9,34.9,32.5,25.4,18.2,87,57,39,30.92,30.51,29,9,29,0.08
2014-2-18,46.7,37.9,29.0,35.4,28.7,23.6,92,70,48,30.95,30.42,25,7,25,0.10
2014-2-19,37.3,30.6,25.0,32.3,22.8,14.5,92,73,52,31.03,30.50,26,4,26,0.01
2014-2-20,36.5,30.6,25.0,30.9,24.1,18.8,89,77,60,31.12,30.83,28,7,28,0.00
2014-2-21,39.1,30.8,24.1,27.8,24.4,19.1,91,78,49,31.05,30.85,18,3,18,0.06
2014-2-22,28.5,22.9,18.0,21.9,18.7,13.7,92,84,72,31.14,31.01,7,1,7,0.01
2014-2-23,24.9,21.6,19.5,21.7,18.7,17.0,92,89,83,31.13,31.01,7,1,7,0.00
2014-2-24,21.5,18.5,16.4,18.0,15.4,13.5,94,87,82,31.35,31.02,11,3,11,0.00
2014-2-25,29.3,18.7,9.2,19.5,13.2,5.1,92,79,59,31.53,31.31,6,0,6,0.23
2014-2-26,24.9,15.0,9.6,16.7,10.7,6.3,88,83,69,31.47,31.07,6,0,6,0.00
2014-2-27,26.8,18.0,7.5,21.1,14.0,3.9,89,84,75,31.07,30.71,4,0,4,0.02
2014-2-28,24.6,18.8,6.1,22.4,15.7,1.8,91,87,79,31.09,30.71,26,7,26,0.00
2014-3-1,11.6,4.9,0.6,3.2,-1.9,-4.3,92,73,58,31.30,31.09,24,5,25,0.00
2014-3-2,21.6,11.4,3.7,19.4,6.9,-1.3,98,81,73,31.26,30.95,10,1,10,0.00
2014-3-3,45.0,37.1,18.0,36.7,30.2,15.3,94,77,52,31.00,30.61,31,5,31,0.27
2014-3-4,46.7,40.5,36.6,33.7,32.0,30.1,86,72,54,30.92,30.72,24,5,24,0.00
2014-3-5,48.2,41.1,35.3,37.6,33.7,30.6,90,75,51,30.90,30.51,25,6,25,0.05
2014-3-6,49.4,41.7,37.2,39.2,36.3,33.7,92,81,58,30.86,30.40,22,5,26,0.34
2014-3-7,50.3,41.2,32.3,37.4,32.3,27.1,85,71,49,31.22,30.83,16,2,16,0.00
2014-3-8,60.7,44.0,30.3,33.0,28.0,23.6,84,57,24,31.25,30.84,27,5,27,0.00
2014-3-9,56.6,50.0,44.0,43.3,39.2,31.1,89,67,49,30.84,30.70,25,9,25,0.13
2014-3-10,45.2,41.4,37.2,41.3,36.7,29.0,95,84,60,31.00,30.66,22,2,22,0.34
2014-3-11,50.1,39.0,33.2,34.3,29.0,23.3,90,70,35,31.42,30.99,14,1,14,0.00
2014-3-12,56.2,38.9,27.8,31.7,24.7,21.4,82,60,26,31.46,31.03,9,1,11,0.00
2014-3-13,57.5,41.2,26.6,33.4,26.0,22.1,85,58,31,31.04,30.86,17,2,17,0.00
2014-3-14,53.5,39.9,32.5,38.2,28.6,22.0,88,65,44,31.06,30.76,33,3,34,0.06
2014-3-15,51.3,42.6,32.7,29.9,26.0,18.5,74,53,28,31.34,30.99,26,4,26,0.00
2014-3-16,65.4,47.3,31.3,32.1,24.4,17.0,79,46,16,31.20,30.46,22,3,22,0.00
2014-3-17,44.2,38.7,30.5,35.3,27.2,21.5,85,64,41,31.00,30.30,22,5,28,0.02
2014-3-18,42.0,34.0,26.9,27.9,22.0,17.9,84,63,39,31.21,31.00,16,3,16,0.00
2014-3-19,51.5,37.2,24.9,27.4,21.3,17.4,77,55,31,31.17,30.78,18,3,18,0.00
2014-3-20,42.3,34.7,28.5,31.5,22.1,14.5,82,61,34,31.21,30.74,30,4,31,0.00
2014-3-21,43.6,31.4,21.8,21.2,16.7,12.1,77,57,28,31.31,31.12,13,2,13,0.00
2014-3-22,47.4,32.8,24.5,23.0,19.7,15.7,82,62,29,31.38,31.09,11,1,11,0.00
2014-3-23,48.8,35.9,27.4,30.0,22.8,17.9,79,60,36,31.19,30.99,15,2,15,0.00
2014-3-24,56.6,37.4,24.1,26.0,20.9,16.6,80,55,24,31.32,31.02,15,1,15,0.00
2014-3-25,59.0,41.5,26.2,32.8,24.6,18.5,82,55,23,31.03,30.41,20,2,20,0.00
2014-3-26,51.5,42.6,34.2,37.0,31.0,25.8,85,64,44,30.45,30.33,17,2,17,0.00
2014-3-27,50.3,37.8,32.0,36.0,31.3,26.8,92,78,40,30.76,30.40,19,2,19,0.02
2014-3-28,54.8,43.6,32.7,37.5,31.7,25.2,92,66,36,30.91,30.65,26,6,26,0.00
2014-3-29,47.8,42.5,37.8,39.2,36.2,32.4,93,79,61,30.74,30.53,19,3,23,0.32
2014-3-30,49.2,40.1,32.9,36.4,31.1,25.9,92,72,40,30.86,30.63,18,2,18,0.00
2014-3-31,53.5,40.3,31.0,31.2,27.5,21.2,84,63,32,30.96,30.68,22,2,22,0.00
2014-4-1,53.4,40.1,27.2,33.4,28.1,23.6,90,66,32,30.72,30.52,14,1,14,0.00
2014-4-2,51.9,40.1,30.9,34.3,28.2,25.1,87,64,40,30.87,30.54,23,2,23,0.00
2014-4-3,57.7,42.9,30.2,29.7,24.0,17.2,80,52,21,30.99,30.76,17,2,17,0.00
2014-4-4,57.3,43.0,34.3,37.3,28.1,20.3,86,57,36,30.79,30.61,23,4,23,0.01
2014-4-5,54.4,42.7,35.5,35.9,30.7,24.2,89,65,33,30.90,30.74,20,2,20,0.00
2014-4-6,55.3,45.8,39.3,39.1,32.6,28.0,81,61,37,31.08,30.77,27,4,27,0.00
2014-4-7,63.4,51.9,41.8,39.8,34.4,29.3,71,52,35,31.15,30.99,22,2,22,0.00
2014-4-8,73.1,53.7,36.6,44.5,36.3,30.5,81,56,27,31.05,30.68,26,2,26,0.00
2014-4-9,57.9,51.3,38.3,43.5,34.7,22.6,75,54,29,30.92,30.62,26,5,26,0.00
2014-4-10,62.0,47.5,35.4,31.6,25.9,20.7,77,46,23,30.99,30.85,19,2,19,0.00
2014-4-11,65.8,48.7,30.1,36.1,28.8,21.4,78,49,28,30.92,30.62,22,2,22,0.00
2014-4-12,57.3,42.5,31.2,35.6,28.6,22.1,90,60,29,31.01,30.61,34,8,34,0.01
2014-4-13,47.9,34.6,20.3,22.8,15.3,4.9,79,49,17,31.37,30.98,24,4,24,0.00
2014-4-14,65.4,43.7,22.9,25.5,15.2,8.7,61,36,11,31.36,30.74,13,2,16,0.00
2014-4-15,52.6,46.1,40.3,34.1,26.9,20.4,61,47,28,30.86,30.61,32,4,32,0.00
2014-4-16,56.1,44.8,35.6,30.8,27.2,23.6,66,51,33,30.92,30.83,15,2,17,0.00
2014-4-17,62.9,49.5,37.0,42.0,34.5,27.8,85,58,37,30.85,30.48,28,4,28,0.02
2014-4-18,54.3,45.6,33.4,42.5,28.2,14.4,91,55,22,30.97,30.53,28,5,28,0.04
2014-4-19,70.7,47.6,25.1,32.6,23.4,16.2,73,43,16,30.97,30.63,32,3,32,0.00
2014-4-20,61.1,50.3,40.3,33.0,25.9,18.3,62,40,19,31.11,30.82,22,3,27,0.00
2014-4-21,70.5,51.0,30.0,36.9,28.3,22.4,76,45,18,31.14,30.61,13,0,14,0.00
2014-4-22,57.0,45.9,39.8,44.3,33.6,24.9,82,62,42,30.62,30.40,19,3,21,0.06
2014-4-23,50.8,41.5,35.6,35.3,30.6,26.0,85,66,44,30.80,30.60,28,5,28,0.00
2014-4-24,58.0,44.8,35.3,41.9,35.7,31.5,93,72,42,30.78,30.64,23,4,23,0.00
2014-4-25,57.2,46.3,34.5,43.4,36.2,31.0,90,69,45,30.72,30.37,16,1,16,0.03
2014-4-26,50.1,44.2,38.7,41.5,35.4,26.7,92,73,48,30.61,30.33,18,3,18,0.16
2014-4-27,55.4,41.2,30.9,35.0,29.0,24.2,81,64,33,30.79,30.52,27,3,27,0.02
2014-4-28,51.7,41.5,33.0,31.0,27.0,22.9,89,59,33,31.38,30.79,27,6,27,0.00
2014-4-29,60.2,43.9,27.1,33.6,25.5,19.1,82,53,21,31.61,31.37,17,2,17,0.00
2014-4-30,70.7,50.1,28.7,36.5,28.3,21.4,78,47,19,31.53,31.13,9,1,9,0.00
2014-5-1,78.7,57.5,36.7,42.5,34.2,27.9,75,46,19,31.17,30.78,14,1,14,0.00
2014-5-2,77.8,61.4,44.4,42.9,37.0,33.1,68,44,20,30.80,30.53,21,2,21,0.00
2014-5-3,71.7,58.0,46.7,44.5,39.9,36.5,70,53,30,30.58,30.41,23,4,23,0.00
2014-5-4,63.6,51.5,43.9,48.0,39.8,34.2,93,67,34,30.67,30.48,20,4,20,0.17
2014-5-5,58.0,47.8,40.7,44.9,38.0,31.0,92,70,48,30.73,30.62,25,2,25,0.04
2014-5-6,60.4,46.6,35.7,39.2,34.5,30.1,87,65,34,30.76,30.59,20,3,20,0.04
2014-5-7,55.9,46.9,36.5,39.9,34.5,31.2,89,63,41,30.81,30.68,16,2,16,0.02
2014-5-8,66.3,50.2,33.2,39.7,33.0,26.6,85,56,25,30.81,30.45,13,1,13,0.00
2014-5-9,59.6,49.8,42.3,42.7,36.4,31.8,78,61,38,30.75,30.39,27,3,27,0.00
2014-5-10,50.4,43.3,38.9,39.8,35.8,31.7,89,75,58,30.98,30.70,15,2,15,0.09
2014-5-11,46.7,41.3,36.4,39.9,36.4,31.7,92,83,65,31.32,30.96,20,6,20,0.06
2014-5-12,60.2,44.1,27.9,35.4,28.6,23.2,92,59,25,31.47,31.26,13,1,13,0.00
2014-5-13,68.5,49.7,30.9,39.6,30.0,24.7,81,51,21,31.42,31.17,11,0,11,0.00
2014-5-14,74.1,55.7,35.3,45.1,34.7,27.5,78,49,24,31.28,30.98,11,1,11,0.00
2014-5-15,79.9,61.3,42.9,46.0,38.8,34.6,77,48,21,31.04,30.74,19,1,19,0.00
2014-5-16,74.4,59.6,45.2,50.7,42.8,34.4,78,55,32,30.86,30.62,16,1,16,0.00
2014-5-17,76.0,60.1,45.4,51.4,43.0,35.4,91,58,27,30.74,30.47,17,2,17,0.00
2014-5-18,61.8,49.0,40.8,48.5,40.6,34.8,91,73,50,30.68,30.48,16,2,16,0.37
2014-5-19,63.5,52.3,41.6,44.2,39.5,36.0,85,63,38,30.82,30.64,17,2,17,0.00
2014-5-20,71.4,53.9,36.3,44.9,37.7,30.2,90,59,22,30.92,30.71,13,2,13,0.00
2014-5-21,77.5,58.5,38.4,47.8,39.4,33.6,87,54,22,30.89,30.66,14,1,14,0.00
2014-5-22,82.7,62.7,42.7,52.8,41.9,34.5,83,51,19,30.87,30.67,13,1,13,0.00
2014-5-23,85.0,65.4,46.0,52.6,42.5,34.9,78,47,17,30.82,30.54,19,2,19,0.00
2014-5-24,70.4,59.6,50.0,51.8,47.6,43.4,84,65,46,30.83,30.61,10,1,12,0.00
2014-5-25,79.3,60.6,42.9,50.4,43.6,38.8,92,58,24,30.90,30.59,10,1,10,0.00
2014-5-26,73.3,59.9,47.8,52.1,45.1,41.3,83,60,37,30.83,30.61,19,3,19,0.00
2014-5-27,76.4,57.8,41.2,51.2,44.2,36.7,88,63,30,30.92,30.60,19,2,19,0.00
2014-5-28,70.3,57.1,47.3,52.7,45.2,32.3,87,66,45,30.85,30.54,24,3,24,0.00
2014-5-29,65.6,51.8,36.8,46.5,35.0,29.9,80,55,28,31.03,30.84,20,2,20,0.00
2014-5-30,69.4,52.8,35.8,48.7,38.3,29.9,86,61,28,31.04,30.70,16,1,16,0.00
2014-5-31,75.9,61.1,6.8,99.9,45.1,37.4,85,58,29,30.73,30.51,31,2,75,0.17
2014-6-1,73.7,59.8,47.2,54.4,46.0,39.3,91,63,30,30.82,30.67,18,2,18,0.00
2014-6-2,80.6,60.7,43.2,54.3,42.3,34.2,86,55,19,30.82,30.51,15,1,22,0.00
2014-6-3,74.3,61.1,51.7,56.0,47.2,39.8,79,61,34,30.69,30.45,27,2,27,0.20
2014-6-4,76.6,60.2,44.3,51.2,42.6,35.5,89,57,26,30.80,30.62,27,1,27,0.00
2014-6-5,74.4,60.9,45.0,47.1,38.3,27.7,72,46,25,30.73,30.64,19,2,19,0.00
2014-6-6,73.5,56.3,42.2,45.0,36.7,28.5,76,51,21,30.86,30.72,13,1,13,0.00
2014-6-7,71.2,57.0,40.5,47.6,38.1,32.6,80,52,28,30.91,30.76,12,0,12,0.00
2014-6-8,77.7,63.1,46.5,50.8,42.0,36.9,78,49,23,30.93,30.68,12,0,12,0.00
2014-6-9,77.9,63.9,48.8,48.9,41.8,37.2,71,46,27,30.71,30.54,27,4,27,0.00
2014-6-10,75.9,60.6,42.8,48.1,38.6,32.7,82,48,23,30.68,30.56,21,2,21,0.00
2014-6-11,74.6,59.3,41.1,47.0,39.3,33.9,79,51,23,30.83,30.62,11,1,11,0.00
2014-6-12,80.5,62.0,43.7,54.3,43.9,36.0,78,54,31,30.68,30.30,14,2,14,0.05
2014-6-13,63.2,54.7,48.5,51.4,44.8,36.6,94,71,39,30.73,30.39,20,3,20,0.25
2014-6-14,60.7,51.8,41.6,45.8,41.1,36.8,88,68,47,30.80,30.69,11,1,11,0.00
2014-6-15,68.1,54.4,40.9,48.5,42.7,36.7,95,67,33,30.72,30.46,18,2,18,0.01
2014-6-16,60.3,50.6,45.5,47.9,44.1,40.0,92,79,56,30.63,30.46,17,2,17,0.29
2014-6-17,57.8,48.2,41.7,45.1,41.3,36.2,93,79,55,30.83,30.58,14,1,14,0.28
2014-6-18,59.1,49.5,41.1,47.1,41.4,36.1,96,76,44,30.83,30.72,13,1,13,0.00
2014-6-19,77.4,63.8,51.3,49.8,45.4,42.1,79,54,30,30.81,30.60,18,3,18,0.00
2014-6-20,78.9,62.8,48.6,57.7,48.3,42.2,89,62,33,30.75,30.55,25,1,25,0.00
2014-6-21,77.5,62.9,46.7,50.3,44.1,36.1,82,53,25,30.79,30.62,16,2,16,0.00
2014-6-22,78.7,61.6,47.7,55.2,46.4,40.3,84,60,33,30.80,30.65,18,2,18,0.00
2014-6-23,81.2,63.5,46.4,54.4,47.9,42.4,89,61,28,30.88,30.62,10,1,10,0.00
2014-6-24,82.9,66.6,51.5,58.2,50.1,44.3,81,57,31,30.70,30.52,13,1,14,0.00
2014-6-25,77.9,65.9,53.6,54.0,49.8,45.2,83,58,35,30.70,30.49,18,2,18,0.00
2014-6-26,72.9,61.8,55.7,62.0,54.9,51.1,95,79,50,30.52,30.37,20,1,20,0.34
2014-6-27,68.1,60.6,54.7,56.7,52.6,49.2,91,76,54,30.58,30.47,13,1,13,0.10
2014-6-28,67.6,58.0,49.3,52.4,47.3,42.7,88,69,44,30.77,30.55,18,3,18,0.10
2014-6-29,71.7,58.0,48.1,52.6,45.3,37.7,85,65,35,30.91,30.73,18,3,18,0.01
2014-6-30,77.1,61.3,44.7,53.0,44.9,39.2,84,59,31,31.01,30.83,10,1,10,0.00
2014-7-1,84.5,64.5,45.6,56.8,47.7,41.4,89,59,27,30.97,30.63,10,1,10,0.00
2014-7-2,90.6,70.7,50.7,64.5,52.6,44.7,83,56,33,30.71,30.47,16,1,16,0.00
2014-7-3,94.7,76.1,59.8,63.1,53.3,45.7,75,48,21,30.62,30.42,15,2,15,0.00
2014-7-4,86.0,71.8,58.0,61.3,54.0,46.6,79,55,36,30.65,30.50,12,2,14,0.00
2014-7-5,89.5,73.7,57.4,59.4,49.7,41.3,80,48,19,30.76,30.59,21,2,21,0.00
2014-7-6,93.9,72.9,54.1,57.5,49.3,40.9,78,48,18,30.83,30.60,17,1,17,0.00
2014-7-7,88.4,73.5,55.8,60.7,51.4,45.4,72,49,26,30.81,30.59,11,1,12,0.00
2014-7-8,91.1,73.0,54.2,65.1,54.6,48.2,84,56,29,30.76,30.49,10,1,10,0.00
2014-7-9,88.5,72.1,55.2,62.3,53.3,48.2,80,54,27,30.63,30.47,12,1,12,0.00
2014-7-10,93.5,76.6,58.3,60.2,49.2,38.5,75,43,15,30.59,30.39,19,2,19,0.00
2014-7-11,88.8,72.0,52.3,58.1,49.4,39.8,76,47,28,30.72,30.51,16,3,16,0.00
2014-7-12,92.4,73.7,54.2,59.5,51.5,46.6,82,49,25,30.87,30.68,11,1,11,0.00
2014-7-13,95.4,75.1,56.8,63.0,52.7,46.0,80,49,22,30.91,30.65,10,1,10,0.00
2014-7-14,88.1,72.2,61.5,61.9,55.5,49.8,84,58,32,30.83,30.56,15,2,15,0.04
2014-7-15,82.3,66.3,58.3,64.2,58.8,53.0,93,78,46,30.81,30.64,22,1,22,0.02
2014-7-16,93.5,70.5,54.0,65.8,56.6,50.9,93,66,26,30.82,30.52,7,0,7,0.01
2014-7-17,95.1,77.1,58.2,63.6,49.7,37.0,75,44,14,30.60,30.37,22,2,22,0.00
2014-7-18,78.8,68.7,55.4,58.2,49.5,42.4,67,51,35,30.65,30.42,19,3,19,0.00
2014-7-19,87.9,71.3,53.3,55.0,47.4,40.0,72,46,26,30.67,30.46,23,3,23,0.00
2014-7-20,93.4,75.5,57.7,55.9,49.9,42.6,76,45,20,30.53,30.31,21,3,21,0.00
2014-7-21,83.2,69.7,58.4,59.8,53.9,42.4,88,61,31,30.72,30.44,13,1,13,0.00
2014-7-22,92.4,71.9,55.9,59.8,52.3,45.3,85,54,23,30.86,30.65,15,1,15,0.00
2014-7-23,94.7,71.6,59.3,65.6,57.1,48.7,93,64,22,30.86,30.46,21,1,21,0.27
2014-7-24,75.3,65.0,53.3,53.3,43.0,34.1,73,48,23,30.88,30.52,21,3,31,0.01
2014-7-25,82.1,63.4,45.0,50.2,42.3,37.1,83,51,21,30.89,30.70,16,1,16,0.00
2014-7-26,87.7,66.1,45.0,53.7,43.7,37.2,82,49,17,30.97,30.77,8,0,8,0.00
2014-7-27,90.9,69.1,48.0,58.9,47.0,39.2,77,49,23,31.00,30.73,11,1,11,0.00
2014-7-28,89.2,70.8,55.0,64.2,50.1,43.1,78,51,22,30.90,30.69,7,0,7,0.00
2014-7-29,94.0,74.2,56.4,58.2,49.2,39.1,76,45,15,30.86,30.64,11,1,11,0.00
2014-7-30,93.4,72.1,56.8,61.8,49.9,43.9,74,48,20,30.82,30.66,15,1,15,0.00
2014-7-31,93.5,70.5,55.4,60.8,50.4,44.7,74,51,21,30.85,30.64,9,0,10,0.00
2014-8-1,93.0,72.0,54.7,60.4,50.0,44.2,76,49,20,30.83,30.64,25,1,26,0.01
2014-8-2,90.4,70.0,55.0,62.4,52.5,46.8,79,56,26,30.83,30.64,12,1,12,0.00
2014-8-3,90.3,73.6,58.5,60.8,54.5,48.8,81,54,25,30.83,30.60,16,1,16,0.00
2014-8-4,88.9,69.7,57.2,60.0,52.1,47.7,77,56,31,30.76,30.52,21,2,21,0.00
2014-8-5,89.3,70.7,53.3,61.5,52.0,46.4,89,56,23,30.78,30.55,11,1,11,0.00
2014-8-6,91.3,72.9,56.6,60.7,50.3,45.1,78,49,22,30.75,30.51,9,1,10,0.00
2014-8-7,91.1,72.1,56.1,56.9,49.1,43.3,78,47,23,30.73,30.49,9,0,9,0.00
2014-8-8,85.4,67.1,54.9,57.7,50.4,42.5,83,57,31,30.76,30.52,22,2,22,0.02
2014-8-9,86.1,66.2,50.5,57.7,51.7,40.5,94,64,29,30.93,30.72,7,0,7,0.00
2014-8-10,88.4,67.5,48.8,58.0,48.2,41.2,82,53,26,30.97,30.75,12,1,12,0.00
2014-8-11,91.8,70.6,52.9,62.6,49.6,40.6,76,50,27,30.91,30.61,10,1,10,0.00
2014-8-12,80.8,68.4,56.9,62.3,54.5,46.8,76,62,39,30.80,30.58,25,1,25,0.01
2014-8-13,81.3,65.5,55.9,62.6,56.6,50.8,92,74,43,30.80,30.50,33,2,33,0.00
2014-8-14,81.8,64.0,58.2,62.4,57.8,51.8,98,82,41,30.78,30.55,24,1,24,0.00
2014-8-15,72.5,61.7,53.4,62.8,55.9,50.6,95,82,55,30.84,30.67,20,1,20,0.13
2014-8-16,79.9,63.9,54.1,59.5,53.4,49.9,93,72,36,30.88,30.73,13,1,13,0.00
2014-8-17,85.2,66.8,51.0,59.3,52.5,48.0,93,64,31,30.90,30.69,10,0,10,0.00
2014-8-18,86.8,61.1,52.6,61.7,50.9,44.2,86,72,24,30.78,30.49,12,0,12,0.00
2014-8-19,87.8,68.0,51.5,58.4,50.3,45.9,85,57,27,30.56,30.31,29,1,29,0.00
2014-8-20,73.9,64.9,53.9,57.7,51.9,45.3,82,64,47,30.59,30.39,16,3,16,0.00
2014-8-21,76.0,63.2,53.8,56.5,52.5,49.5,93,70,42,30.74,30.58,16,3,16,0.08
2014-8-22,66.8,56.9,51.8,54.8,51.1,47.8,93,82,59,30.86,30.68,18,2,18,0.54
2014-8-23,56.0,52.7,50.4,51.6,50.0,47.6,95,90,79,30.99,30.81,10,1,10,0.27
2014-8-24,65.4,55.7,47.6,51.1,48.5,43.6,95,78,50,30.94,30.77,15,1,15,0.00
2014-8-25,74.5,59.9,50.0,54.1,48.0,44.2,87,67,37,30.91,30.68,11,1,11,0.00
2014-8-26,79.7,61.9,47.2,55.7,49.0,44.1,94,67,31,30.95,30.75,6,0,7,0.00
2014-8-27,86.6,64.2,47.6,61.3,49.2,42.7,86,62,28,30.94,30.68,10,0,10,0.00
2014-8-28,86.5,66.8,52.1,59.8,48.8,42.6,82,56,24,30.81,30.59,17,1,17,0.00
2014-8-29,86.4,66.2,49.9,53.9,46.5,38.7,81,53,20,30.78,30.46,10,1,10,0.00
2014-8-30,71.7,64.5,55.5,53.6,47.1,40.2,84,55,37,30.58,30.44,21,2,21,0.03
2014-8-31,69.0,58.6,51.7,52.2,47.4,41.2,87,68,41,30.76,30.55,15,1,15,0.02
2014-9-1,73.8,59.8,48.5,47.5,43.6,38.9,88,58,31,30.86,30.67,13,1,13,0.00
2014-9-2,82.0,62.0,42.8,52.8,44.0,38.6,89,56,24,30.78,30.36,12,1,14,0.00
2014-9-3,63.2,56.1,47.6,46.5,40.2,33.2,77,56,35,30.90,30.33,21,3,23,0.00
2014-9-4,68.8,53.7,42.3,46.6,40.9,36.1,85,65,32,31.06,30.87,11,1,11,0.00
2014-9-5,75.1,54.1,37.8,48.1,39.3,33.6,88,62,25,31.16,30.92,8,0,10,0.00
2014-9-6,78.2,56.6,39.5,50.5,39.5,33.0,81,56,29,31.12,30.76,9,1,10,0.00
2014-9-7,86.2,61.0,40.4,52.0,39.6,33.9,84,50,16,30.84,30.52,11,0,11,0.00
2014-9-8,82.9,62.5,42.8,48.5,36.8,26.4,76,43,14,30.66,30.43,16,1,16,0.00
2014-9-9,72.0,57.5,47.9,46.0,40.3,32.5,78,54,35,30.84,30.47,18,3,20,0.00
2014-9-10,62.1,50.3,42.3,43.7,39.6,32.9,91,69,39,31.15,30.78,23,6,27,0.00
2014-9-11,58.3,45.8,35.0,34.2,29.2,26.1,72,54,30,31.37,31.13,23,4,24,0.00
2014-9-12,68.2,45.9,27.5,39.3,30.3,22.4,89,58,28,31.28,30.85,12,1,12,0.00
2014-9-13,67.9,49.0,33.6,41.1,32.8,27.0,81,56,31,31.09,30.78,12,1,12,0.00
2014-9-14,73.6,51.8,34.6,44.5,36.3,30.0,85,59,29,30.99,30.78,10,1,11,0.00
2014-9-15,77.2,54.8,36.7,52.6,38.5,30.6,85,57,31,31.03,30.72,8,1,9,0.00
2014-9-16,80.1,58.4,43.6,60.9,46.0,35.4,80,64,43,30.86,30.55,24,1,25,0.06
2014-9-17,78.2,61.3,48.1,60.7,50.5,43.9,93,70,45,30.71,30.45,10,0,10,0.00
2014-9-18,81.0,64.7,54.2,55.8,48.3,43.7,79,57,32,30.58,30.36,13,1,15,0.00
2014-9-19,73.1,63.2,52.1,52.9,47.7,43.8,75,58,43,30.90,30.52,11,0,11,0.00
2014-9-20,78.2,58.5,42.2,52.9,45.1,38.7,92,65,32,31.11,30.83,10,1,10,0.00
2014-9-21,82.7,60.4,42.6,53.0,43.8,37.4,88,58,27,30.99,30.64,7,0,7,0.00
2014-9-22,84.8,63.5,47.3,55.4,46.3,41.1,83,56,29,30.79,30.56,8,1,12,0.00
2014-9-23,80.3,63.8,49.5,58.1,49.0,43.5,82,60,38,30.83,30.57,11,1,15,0.00
2014-9-24,93.1,68.5,54.6,57.4,48.5,39.9,81,54,17,30.68,30.37,16,1,17,0.00
2014-9-25,83.6,64.6,47.1,55.7,46.2,40.7,86,54,31,30.65,30.33,15,2,15,0.00
2014-9-26,70.1,59.2,48.1,51.9,46.8,40.6,87,65,40,30.86,30.50,12,2,16,0.09
2014-9-27,57.4,53.1,48.2,46.5,44.6,41.1,84,73,64,30.89,30.74,20,4,21,0.00
2014-9-28,58.6,55.4,52.9,47.2,45.1,43.5,76,68,62,30.87,30.75,20,5,24,0.00
2014-9-29,61.1,52.4,42.5,50.9,46.2,38.6,93,80,64,30.76,30.57,7,0,10,0.17
2014-9-30,59.0,52.6,44.9,48.5,42.4,36.6,87,69,48,30.82,30.56,26,4,27,0.01
2014-10-1,57.7,47.7,40.8,40.9,36.6,32.8,85,67,41,30.99,30.78,17,2,17,0.00
2014-10-2,60.4,48.8,37.6,38.2,32.8,28.5,79,56,32,31.25,30.91,17,3,17,0.00
2014-10-3,62.4,43.4,29.5,38.7,31.3,25.2,87,65,35,31.43,31.16,7,0,7,0.00
2014-10-4,75.8,54.0,36.0,46.6,37.6,29.4,82,57,29,31.19,30.87,15,1,15,0.00
2014-10-5,76.9,60.9,49.1,49.8,43.0,38.9,74,54,31,30.95,30.74,10,1,13,0.00
2014-10-6,79.1,61.4,44.1,49.3,43.7,37.6,83,55,32,30.92,30.64,11,1,13,0.00
2014-10-7,80.7,62.0,50.1,52.1,44.4,39.1,75,55,30,30.78,30.61,10,2,16,0.00
2014-10-8,73.5,56.3,43.1,48.4,42.1,36.7,81,61,36,30.82,30.64,9,1,9,0.00
2014-10-9,70.7,53.4,39.3,46.0,39.9,34.1,86,63,37,30.92,30.73,9,1,9,0.00
2014-10-10,70.2,49.1,37.9,46.7,39.4,33.9,90,71,40,31.00,30.74,6,0,9,0.00
2014-10-11,66.2,52.7,44.4,49.4,40.4,35.7,90,64,44,30.81,30.57,22,3,22,0.23
2014-10-12,55.0,47.5,42.7,42.0,38.9,34.1,92,73,48,31.09,30.72,17,2,17,0.04
2014-10-13,68.4,53.0,40.7,41.5,37.1,34.3,79,57,33,31.07,30.64,16,3,16,0.00
2014-10-14,78.2,61.6,50.9,44.0,38.3,34.1,62,43,23,30.65,30.40,19,5,19,0.00
2014-10-15,60.8,47.2,40.4,43.9,37.8,33.6,85,70,45,30.87,30.38,34,3,34,0.03
2014-10-16,59.9,48.6,35.2,39.5,35.1,28.8,84,61,35,31.04,30.85,16,1,16,0.00
2014-10-17,61.7,43.1,29.7,42.0,33.1,25.5,92,70,40,31.08,30.79,7,0,7,0.00
2014-10-18,66.4,48.3,36.9,44.9,38.2,32.5,86,70,38,30.97,30.76,12,2,12,0.00
2014-10-19,67.4,48.4,35.5,47.2,38.7,31.9,92,72,40,31.00,30.71,7,0,7,0.00
2014-10-20,72.0,50.0,33.8,48.4,38.2,29.5,91,67,36,30.84,30.47,9,1,9,0.00
2014-10-21,54.8,48.3,43.5,46.1,41.6,37.3,92,78,63,30.92,30.38,10,1,10,0.31
2014-10-22,62.3,49.3,38.7,40.9,36.7,33.5,89,64,40,30.96,30.67,19,4,19,0.00
2014-10-23,59.2,53.4,46.8,46.1,41.5,35.4,90,65,47,30.81,30.62,22,6,22,0.10
2014-10-24,52.7,46.7,43.3,45.7,42.9,40.7,93,87,75,31.02,30.78,11,1,14,0.03
2014-10-25,58.1,46.0,37.6,46.2,42.3,35.4,95,87,47,30.91,30.47,19,1,19,0.01
2014-10-26,58.1,46.5,39.2,40.8,36.0,31.3,83,68,44,30.87,30.44,31,4,31,0.02
2014-10-27,51.0,40.3,30.8,35.1,31.0,25.1,81,70,41,31.13,30.84,18,2,18,0.01
2014-10-28,59.0,39.0,26.0,39.4,30.1,22.1,94,73,39,31.22,30.94,16,1,16,0.07
2014-10-29,55.9,45.6,35.6,45.8,39.7,31.8,92,81,51,31.18,30.84,18,1,18,0.04
2014-10-30,54.2,43.4,35.1,44.6,38.5,32.0,93,84,66,31.21,30.86,6,0,6,0.00
2014-10-31,59.2,45.4,36.1,47.6,39.6,33.7,94,81,61,30.87,30.54,10,1,10,0.00
2014-11-1,46.7,40.2,32.4,41.8,37.0,29.7,94,88,77,30.61,30.40,14,1,14,0.74
2014-11-2,47.7,40.8,33.3,37.7,31.5,25.6,92,70,43,31.07,30.49,20,3,20,0.05
2014-11-3,50.7,40.9,32.1,36.2,32.1,26.7,84,72,51,31.20,31.05,17,3,17,0.00
2014-11-4,52.4,48.3,42.4,41.9,37.2,33.4,79,66,55,31.08,30.92,22,7,22,0.01
2014-11-5,59.8,49.9,43.7,42.0,39.5,36.3,79,68,46,31.20,31.06,7,2,13,0.01
2014-11-6,67.3,55.7,45.6,45.6,39.7,36.8,82,57,35,31.10,30.70,23,5,23,0.01
2014-11-7,54.2,46.1,31.1,45.6,34.0,27.2,89,64,44,31.35,30.80,25,3,25,0.02
2014-11-8,50.1,35.4,26.0,38.3,30.3,23.3,94,82,60,31.35,31.00,7,0,7,0.01
2014-11-9,61.1,44.4,32.6,44.2,37.2,28.8,90,78,41,30.99,30.35,17,2,20,0.18
2014-11-10,39.3,24.6,16.8,36.2,19.8,7.9,92,82,67,31.38,30.44,30,8,30,0.01
2014-11-11,16.6,10.4,2.3,8.0,0.4,-3.3,77,64,51,31.84,31.38,27,6,27,0.00
2014-11-12,17.7,5.1,-3.1,2.7,-3.2,-8.4,80,69,44,31.93,31.65,4,0,4,0.00
2014-11-13,16.4,7.8,-2.7,7.8,1.0,-7.4,92,74,58,31.65,31.22,3,0,5,0.00
2014-11-14,18.5,13.8,8.9,12.7,9.3,4.5,89,82,77,31.40,31.16,5,0,5,0.00
2014-11-15,18.2,7.4,-1.6,7.7,0.4,-7.7,85,73,50,31.84,31.40,3,0,3,0.01
2014-11-16,25.3,12.0,2.4,10.4,4.6,-3.0,84,72,51,31.91,31.70,4,0,4,0.00
2014-11-17,24.4,12.8,3.8,13.5,6.8,0.1,88,77,59,31.82,31.29,4,0,4,0.00
2014-11-18,27.8,18.4,8.7,20.4,13.2,4.6,87,80,65,31.57,31.29,5,0,5,0.01
2014-11-19,31.4,22.8,13.7,24.4,17.7,10.4,89,81,68,31.34,31.10,3,0,3,0.00
2014-11-20,32.6,25.5,19.5,25.6,21.3,15.7,91,84,73,31.15,31.04,4,0,4,0.00
2014-11-21,42.3,33.2,26.2,35.0,28.2,22.7,91,82,67,31.04,30.43,28,2,28,0.01
2014-11-22,44.0,39.3,32.6,37.4,31.7,23.9,91,75,46,30.81,30.33,23,4,26,0.15
2014-11-23,40.9,36.1,32.6,31.3,27.6,22.7,89,72,58,31.11,30.79,21,5,21,0.01
2014-11-24,43.8,37.9,32.4,28.8,24.8,20.5,83,60,43,31.28,30.99,23,5,23,0.00
2014-11-25,41.4,36.0,31.9,37.4,32.4,28.3,94,87,65,31.16,30.88,26,5,26,0.34
2014-11-26,45.0,34.8,32.0,39.6,32.5,29.0,96,91,73,31.19,31.02,11,0,11,0.52
2014-11-27,58.9,46.9,32.5,40.9,36.3,30.2,93,67,49,31.07,30.60,29,9,29,0.06
2014-11-28,51.5,47.4,42.8,40.3,37.2,33.0,85,68,57,30.61,30.16,29,12,29,0.07
2014-11-29,46.4,35.8,18.1,38.5,27.6,13.5,89,73,50,30.95,30.04,28,7,28,0.11
2014-11-30,26.9,17.9,13.0,16.0,12.1,9.4,87,78,56,31.40,30.95,7,0,9,0.00
2014-12-1,23.6,15.6,8.7,18.1,11.7,5.4,88,84,77,31.35,31.13,11,0,11,0.00
2014-12-2,33.4,23.4,16.7,23.5,18.3,13.5,94,81,64,31.31,31.14,10,1,10,0.00
2014-12-3,27.8,22.8,16.7,22.5,18.5,13.8,91,84,75,31.15,30.96,7,0,7,0.00
2014-12-4,31.0,28.2,25.3,28.3,25.4,21.1,91,89,82,31.08,30.90,3,0,5,0.02
2014-12-5,39.5,31.5,26.8,34.3,29.0,24.8,93,90,81,31.22,31.06,4,0,5,0.04
2014-12-6,41.9,30.0,24.6,36.9,28.1,22.9,100,93,78,31.22,31.11,17,1,17,0.08
2014-12-7,42.1,35.7,28.6,37.7,32.1,26.0,94,87,77,31.36,31.18,15,1,17,0.02
2014-12-8,31.1,27.5,24.8,29.2,25.8,22.9,100,93,90,31.33,31.23,5,0,5,0.00
2014-12-9,31.9,27.5,23.4,30.5,26.0,21.4,95,94,92,31.27,31.08,7,0,7,0.00
2014-12-10,49.6,38.2,27.3,41.9,32.5,25.8,97,82,54,31.13,30.58,17,2,17,0.01
2014-12-11,53.3,45.0,35.1,40.2,34.3,31.1,89,68,43,30.61,30.40,13,2,16,0.00
2014-12-12,49.4,41.6,36.2,38.4,33.3,29.8,86,73,53,30.61,30.45,11,2,17,0.00
2014-12-13,42.5,37.3,31.7,34.7,30.7,23.9,92,78,59,31.10,30.58,12,2,19,0.04
2014-12-14,35.4,31.9,26.5,31.7,28.1,23.2,95,86,78,31.25,31.10,4,0,4,0.00
2014-12-15,37.2,27.3,21.7,26.6,21.7,17.3,88,80,61,31.28,31.10,6,0,6,0.00
2014-12-16,30.0,26.5,21.6,25.6,22.7,18.3,98,85,80,31.11,30.99,4,0,4,0.01
2014-12-17,39.2,30.7,27.8,28.4,25.7,23.9,89,82,63,31.01,30.88,5,0,5,0.00
2014-12-18,36.6,30.8,26.7,32.3,27.7,24.2,92,88,83,31.05,30.95,8,1,8,0.00
2014-12-19,42.7,33.8,28.2,35.6,30.5,26.2,94,88,72,31.00,30.83,16,2,21,0.04
2014-12-20,42.6,33.3,28.4,34.6,29.1,24.5,96,85,70,30.99,30.55,21,2,21,0.01
2014-12-21,42.5,39.2,35.1,38.2,35.1,32.0,92,85,76,30.84,30.42,36,6,36,0.68
2014-12-22,37.9,35.3,32.5,33.7,29.7,25.5,92,80,70,31.29,30.79,16,1,20,0.02
2014-12-23,41.7,33.4,26.4,29.9,24.9,21.1,82,71,53,31.38,30.92,19,3,19,0.00
2014-12-24,48.3,40.6,32.8,35.8,32.4,29.0,93,74,54,30.92,30.32,26,7,26,0.07
2014-12-25,33.4,30.0,27.2,30.0,26.7,21.8,93,87,77,31.09,30.50,16,1,17,0.07
2014-12-26,30.1,26.3,20.9,24.8,21.4,15.4,90,81,73,31.33,31.05,7,1,7,0.00
2014-12-27,33.3,28.4,21.5,25.0,20.7,15.9,81,73,62,31.31,30.83,22,6,22,0.00
2014-12-28,34.4,28.7,19.7,27.5,22.9,11.5,90,79,70,31.25,30.83,23,6,23,0.00
2014-12-29,19.7,12.3,2.1,12.1,2.7,-6.6,76,65,57,31.95,31.24,23,10,28,0.00
2014-12-30,8.8,0.9,-6.3,-2.9,-7.4,-12.4,77,68,52,31.99,31.95,3,0,6,0.00
2014-12-31,14.0,6.5,1.6,2.6,-1.1,-4.6,79,71,57,31.98,31.66,7,0,7,0.00
2015-1-1,16.9,7.1,1.0,6.4,1.0,-3.5,92,76,60,31.69,31.48,4,0,4,0.00
2015-1-2,19.7,13.1,5.1,16.6,8.7,0.8,92,82,72,31.48,31.08,9,0,9,0.00